This demonstration page uses our WeatherBlox Daily Observations layout. Learn more.

36.17497, -115.13722

Hourly Observations for July 15, 2015

Temp ( °F °C ) Dew Point ( °F °C ) Humidity (%) Winds ( mph kmh ) Pressure ( in mb ) Visibility ( mi km ) Precip ( " mm )
12:53 am 00:53 Clear 85 29.4 30 -1.1 14 14 SSE 5 7 29.72 1007 10 16.0934 0 0
1:53 am 01:53 Clear 81 27.2 36 2.2 20 20 NNE 3 6 29.72 1007 10 16.0934 0 0
2:53 am 02:53 Clear 80 26.7 37 2.8 21 21 Calm 29.73 1007 10 16.0934 0 0
3:53 am 03:53 Clear 78 25.6 38 3.3 24 24 Calm 29.75 1008 10 16.0934 0 0
4:53 am 04:53 Clear 80 26.7 35 1.7 20 20 SW 5 7 29.77 1008 10 16.0934 0 0
5:53 am 05:53 Sunny 75 23.9 37 2.8 25 25 WNW 5 7 29.8 1009 10 16.0934 0 0
6:53 am 06:53 Sunny 76 24.4 37 2.8 24 24 SSE 3 6 29.82 1010 10 16.0934 0 0
7:53 am 07:53 Sunny 81 27.2 37 2.8 21 21 VRB 3 6 29.84 1011 10 16.0934 0 0
8:53 am 08:53 Sunny 87 30.6 37 2.8 17 17 SE 5 7 29.85 1011 10 16.0934 0 0
9:53 am 09:53 Sunny 91 32.8 36 2.2 14 14 ESE 10 17 29.85 1011 10 16.0934 0 0
10:53 am 10:53 Sunny 94 34.4 36 2.2 13 13 SSE 17 28 29.84 1011 10 16.0934 0 0
11:53 am 11:53 Sunny 95 35 36 2.2 13 13 S 16 26 29.83 1010 10 16.0934 0 0
12:53 pm 12:53 Sunny 97 36.1 35 1.7 11 11 S 7 11 29.82 1010 10 16.0934 0 0
1:53 pm 13:53 Sunny 100 37.8 34 1.1 10 10 S 9 15 29.79 1009 10 16.0934 0 0
2:53 pm 14:53 Sunny 101 38.3 25 -3.9 7 7 SSW 20 31 29.77 1008 10 16.0934 0 0
3:53 pm 15:53 Sunny 100 37.8 24 -4.4 7 7 SW 12 19 29.75 1008 10 16.0934 0 0
4:53 pm 16:53 Sunny 101 38.3 25 -3.9 7 7 S 17 28 29.73 1007 10 16.0934 0 0
5:53 pm 17:53 Sunny 100 37.8 29 -1.7 8 8 SSW 15 24 29.73 1007 10 16.0934 0 0
6:53 pm 18:53 Sunny 99 37.2 30 -1.1 9 9 SW 14 22 29.74 1007 10 16.0934 0 0
7:53 pm 19:53 Sunny 96 35.6 28 -2.2 9 9 WSW 12 19 29.75 1008 10 16.0934 0 0
8:53 pm 20:53 Clear 94 34.4 27 -2.8 9 9 WSW 7 11 29.77 1008 10 16.0934 0 0
9:53 pm 21:53 Clear 92 33.3 28 -2.2 10 10 SSW 5 7 29.78 1009 10 16.0934 0 0
10:53 pm 22:53 Clear 87 30.6 29 -1.7 12 12 SSE 7 11 29.79 1009 10 16.0934 0 0
11:53 pm 23:53 Clear 87 30.6 30 -1.1 13 13 Calm 29.8 1009 10 16.0934 0 0

Powered by AerisWeather